PGT4NX LTFJ-LTFC

Flight info

Callsign PGT4NX
Flight time 0h 43m
Altitude 27000
Route ROXUK UN617 ERVAG UT305 TEKDO UT35 BABSA
Aircraft A20N/M-SDE2E3FGHIRWXY/LB1

Departure

Time 2026-04-29 21:08
Airport Istanbul Sabiha Gökçen International Airport (LTFJ)

Arrival

Time 2026-04-29 21:52
Airport Süleyman Demirel International Airport (LTFC)
Time Latitude Longitude Altitude Speed Heading
2026-04-29 20:12 40.90602 29.31634 321 ft 0 kts 333°
2026-04-29 20:49 40.90597 29.31638 321 ft 2 kts 333°
2026-04-29 20:49 40.90584 29.31647 321 ft 2 kts 332°
2026-04-29 20:49 40.90570 29.31656 321 ft 2 kts 333°
2026-04-29 20:50 40.90562 29.31661 321 ft 2 kts 327°
2026-04-29 20:50 40.90552 29.31676 321 ft 2 kts 296°
2026-04-29 20:50 40.90548 29.31694 321 ft 2 kts 271°
2026-04-29 20:50 40.90550 29.31713 321 ft 1 kts 247°
2026-04-29 20:51 40.90552 29.31720 321 ft 1 kts 241°
2026-04-29 20:51 40.90553 29.31723 321 ft 0 kts 243°
2026-04-29 20:51 40.90553 29.31722 321 ft 0 kts 243°
2026-04-29 20:55 40.90550 29.31714 321 ft 2 kts 243°
2026-04-29 20:55 40.90539 29.31686 321 ft 4 kts 244°
2026-04-29 20:55 40.90523 29.31641 321 ft 6 kts 244°
2026-04-29 20:56 40.90500 29.31579 321 ft 8 kts 244°
2026-04-29 20:56 40.90472 29.31504 321 ft 10 kts 244°
2026-04-29 20:56 40.90449 29.31440 321 ft 0 kts 244°
2026-04-29 20:56 40.90446 29.31434 321 ft 1 kts 225°
2026-04-29 20:57 40.90429 29.31431 321 ft 3 kts 171°
2026-04-29 20:57 40.90397 29.31447 321 ft 5 kts 157°
2026-04-29 20:57 40.90358 29.31473 321 ft 7 kts 153°
2026-04-29 20:57 40.90308 29.31501 321 ft 8 kts 174°
2026-04-29 20:58 40.90260 29.31454 321 ft 10 kts 241°
2026-04-29 20:58 40.90227 29.31363 321 ft 12 kts 244°
2026-04-29 20:58 40.90184 29.31245 321 ft 16 kts 244°
2026-04-29 20:58 40.90133 29.31107 321 ft 17 kts 244°
2026-04-29 20:59 40.90081 29.30964 321 ft 17 kts 243°
2026-04-29 20:59 40.90026 29.30815 321 ft 18 kts 244°
2026-04-29 20:59 40.89970 29.30664 321 ft 18 kts 243°
2026-04-29 20:59 40.89914 29.30510 321 ft 18 kts 245°
2026-04-29 21:00 40.89857 29.30351 321 ft 19 kts 244°
2026-04-29 21:00 40.89796 29.30189 321 ft 19 kts 244°
2026-04-29 21:00 40.89738 29.30032 321 ft 18 kts 244°
2026-04-29 21:00 40.89682 29.29881 321 ft 18 kts 244°
2026-04-29 21:01 40.89623 29.29723 321 ft 19 kts 244°
2026-04-29 21:01 40.89565 29.29564 321 ft 19 kts 244°
2026-04-29 21:01 40.89506 29.29403 321 ft 19 kts 244°
2026-04-29 21:01 40.89473 29.29311 321 ft 5 kts 244°
2026-04-29 21:02 40.89455 29.29277 321 ft 0 kts 225°
2026-04-29 21:02 40.89447 29.29267 321 ft 2 kts 213°
2026-04-29 21:02 40.89422 29.29255 321 ft 4 kts 190°
2026-04-29 21:02 40.89383 29.29263 321 ft 6 kts 154°
2026-04-29 21:03 40.89369 29.29272 321 ft 1 kts 154°
2026-04-29 21:03 40.89352 29.29283 321 ft 3 kts 154°
2026-04-29 21:03 40.89347 29.29286 321 ft 0 kts 154°
2026-04-29 21:07 40.89339 29.29291 321 ft 2 kts 154°
2026-04-29 21:07 40.89315 29.29308 321 ft 5 kts 144°
2026-04-29 21:07 40.89290 29.29367 321 ft 9 kts 95°
2026-04-29 21:07 40.89312 29.29449 321 ft 10 kts 64°
2026-04-29 21:08 40.89345 29.29538 321 ft 12 kts 64°
2026-04-29 21:08 40.89498 29.29956 321 ft 89 kts 64°
2026-04-29 21:08 40.89862 29.30965 338 ft 149 kts 63°
2026-04-29 21:08 40.90327 29.32221 935 ft 155 kts 63°
2026-04-29 21:09 40.90800 29.33502 1664 ft 160 kts 64°
2026-04-29 21:09 40.91303 29.34858 2206 ft 173 kts 64°
2026-04-29 21:09 40.91851 29.36341 2701 ft 191 kts 64°
2026-04-29 21:09 40.92467 29.38008 3134 ft 215 kts 64°
2026-04-29 21:10 40.93023 29.39911 3693 ft 234 kts 81°
2026-04-29 21:10 40.92814 29.42118 4299 ft 254 kts 114°
2026-04-29 21:10 40.91628 29.43875 5039 ft 269 kts 149°
2026-04-29 21:10 40.89846 29.44605 5959 ft 275 kts 168°
2026-04-29 21:11 40.87971 29.45082 6869 ft 280 kts 168°
2026-04-29 21:11 40.86067 29.45588 7782 ft 285 kts 168°
2026-04-29 21:11 40.84099 29.46121 8695 ft 290 kts 169°
2026-04-29 21:11 40.82136 29.46710 9596 ft 295 kts 165°
2026-04-29 21:12 40.80172 29.47511 10456 ft 301 kts 163°
2026-04-29 21:12 40.78136 29.48395 11015 ft 317 kts 163°
2026-04-29 21:12 40.75976 29.49329 11488 ft 336 kts 163°
2026-04-29 21:12 40.73704 29.50298 12018 ft 351 kts 163°
2026-04-29 21:13 40.71361 29.51291 12816 ft 356 kts 164°
2026-04-29 21:13 40.69010 29.52280 13673 ft 358 kts 164°
2026-04-29 21:13 40.66636 29.53276 14510 ft 361 kts 165°
2026-04-29 21:13 40.64211 29.54286 15278 ft 366 kts 165°
2026-04-29 21:14 40.61784 29.55294 16007 ft 370 kts 165°
2026-04-29 21:14 40.59320 29.56316 16702 ft 375 kts 165°
2026-04-29 21:14 40.56811 29.57358 17389 ft 379 kts 165°
2026-04-29 21:14 40.54307 29.58396 18072 ft 383 kts 165°
2026-04-29 21:15 40.51749 29.59457 18719 ft 388 kts 165°
2026-04-29 21:15 40.49145 29.60534 19371 ft 393 kts 165°
2026-04-29 21:15 40.46525 29.61618 19997 ft 398 kts 165°
2026-04-29 21:15 40.43894 29.62704 20632 ft 402 kts 165°
2026-04-29 21:16 40.41226 29.63806 21251 ft 406 kts 165°
2026-04-29 21:16 40.38521 29.64922 21857 ft 410 kts 165°
2026-04-29 21:16 40.35780 29.66053 22453 ft 413 kts 166°
2026-04-29 21:16 40.33051 29.67177 23098 ft 415 kts 166°
2026-04-29 21:17 40.30317 29.68304 23850 ft 413 kts 166°
2026-04-29 21:17 40.27596 29.69425 24594 ft 411 kts 166°
2026-04-29 21:17 40.24887 29.70539 25305 ft 409 kts 166°
2026-04-29 21:17 40.22145 29.71665 25985 ft 409 kts 166°
2026-04-29 21:18 40.19451 29.72769 26550 ft 411 kts 166°
2026-04-29 21:18 40.16715 29.73889 26975 ft 415 kts 166°
2026-04-29 21:18 40.13924 29.75030 27069 ft 417 kts 166°
2026-04-29 21:18 40.11165 29.76158 27073 ft 418 kts 166°
2026-04-29 21:19 40.08386 29.77294 27077 ft 418 kts 166°
2026-04-29 21:19 40.05601 29.78432 27080 ft 417 kts 166°
2026-04-29 21:19 40.02864 29.79549 27080 ft 417 kts 166°
2026-04-29 21:19 40.00092 29.80679 27084 ft 417 kts 166°
2026-04-29 21:20 39.97301 29.81816 27084 ft 417 kts 166°
2026-04-29 21:20 39.94549 29.82936 27087 ft 416 kts 166°
2026-04-29 21:20 39.91795 29.84056 27087 ft 416 kts 166°
2026-04-29 21:20 39.89036 29.85177 27087 ft 417 kts 166°
2026-04-29 21:21 39.86253 29.86307 27087 ft 417 kts 166°
2026-04-29 21:21 39.83493 29.87427 27088 ft 417 kts 166°
2026-04-29 21:21 39.80698 29.88559 27087 ft 417 kts 166°
2026-04-29 21:21 39.77961 29.89668 27085 ft 412 kts 166°
2026-04-29 21:22 39.75258 29.90767 27087 ft 399 kts 166°
2026-04-29 21:22 39.72640 29.91827 27090 ft 397 kts 166°
2026-04-29 21:22 39.69980 29.92901 27090 ft 397 kts 166°
2026-04-29 21:22 39.67363 29.93957 27091 ft 397 kts 166°
2026-04-29 21:23 39.64722 29.95021 27089 ft 397 kts 166°
2026-04-29 21:23 39.62075 29.96087 27089 ft 397 kts 166°
2026-04-29 21:23 39.59441 29.97147 27089 ft 397 kts 166°
2026-04-29 21:23 39.56820 29.98202 27088 ft 396 kts 166°
2026-04-29 21:24 39.54172 29.99267 27088 ft 396 kts 166°
2026-04-29 21:24 39.51559 30.00316 27086 ft 396 kts 166°
2026-04-29 21:24 39.48934 30.01368 27087 ft 396 kts 166°
2026-04-29 21:24 39.46276 30.02435 27088 ft 396 kts 166°
2026-04-29 21:25 39.43653 30.03486 27091 ft 396 kts 166°
2026-04-29 21:25 39.41045 30.04531 27091 ft 396 kts 166°
2026-04-29 21:25 39.38422 30.05581 27092 ft 396 kts 166°
2026-04-29 21:25 39.35789 30.06634 27094 ft 396 kts 166°
2026-04-29 21:26 39.33149 30.07690 27096 ft 396 kts 166°
2026-04-29 21:26 39.30516 30.08742 27097 ft 396 kts 166°
2026-04-29 21:26 39.27916 30.09779 27099 ft 396 kts 166°
2026-04-29 21:26 39.25275 30.10832 27099 ft 396 kts 166°
2026-04-29 21:27 39.22627 30.11887 27100 ft 395 kts 166°
2026-04-29 21:27 39.20028 30.12923 27101 ft 395 kts 166°
2026-04-29 21:27 39.17402 30.13967 27101 ft 395 kts 166°
2026-04-29 21:27 39.14773 30.15012 27102 ft 395 kts 166°
2026-04-29 21:28 39.12135 30.16059 27102 ft 395 kts 166°
2026-04-29 21:28 39.09541 30.17085 27101 ft 395 kts 167°
2026-04-29 21:28 39.06849 30.17874 27100 ft 393 kts 174°
2026-04-29 21:28 39.04161 30.18201 27100 ft 390 kts 182°
2026-04-29 21:29 39.01443 30.18170 27101 ft 389 kts 185°
2026-04-29 21:29 38.98722 30.18060 27100 ft 390 kts 185°
2026-04-29 21:29 38.95999 30.17942 27099 ft 390 kts 185°
2026-04-29 21:29 38.93304 30.17830 27101 ft 391 kts 185°
2026-04-29 21:30 38.90585 30.17723 27102 ft 391 kts 185°
2026-04-29 21:30 38.87860 30.17620 27102 ft 391 kts 185°
2026-04-29 21:30 38.85158 30.17519 27102 ft 390 kts 185°
2026-04-29 21:30 38.82446 30.17419 27103 ft 390 kts 185°
2026-04-29 21:31 38.79735 30.17321 27105 ft 390 kts 185°
2026-04-29 21:31 38.76991 30.17223 27106 ft 390 kts 185°
2026-04-29 21:31 38.74282 30.17125 27107 ft 390 kts 185°
2026-04-29 21:31 38.71597 30.17029 27108 ft 390 kts 185°
2026-04-29 21:32 38.68861 30.16929 27106 ft 389 kts 184°
2026-04-29 21:32 38.66184 30.16832 27106 ft 390 kts 184°
2026-04-29 21:32 38.63479 30.16736 27103 ft 389 kts 184°
2026-04-29 21:32 38.60758 30.16638 26923 ft 390 kts 184°
2026-04-29 21:33 38.58031 30.16540 26656 ft 388 kts 184°
2026-04-29 21:33 38.55362 30.16445 26397 ft 385 kts 184°
2026-04-29 21:33 38.52704 30.16351 26125 ft 382 kts 184°
2026-04-29 21:33 38.50044 30.16256 25808 ft 380 kts 184°
2026-04-29 21:34 38.47419 30.16161 25417 ft 380 kts 184°
2026-04-29 21:34 38.44755 30.16066 24918 ft 381 kts 184°
2026-04-29 21:34 38.42118 30.15972 24372 ft 381 kts 184°
2026-04-29 21:34 38.39474 30.15877 23816 ft 382 kts 184°
2026-04-29 21:35 38.36830 30.15791 23249 ft 383 kts 182°
2026-04-29 21:35 38.34145 30.16022 22654 ft 386 kts 174°
2026-04-29 21:35 38.31522 30.16756 22044 ft 390 kts 165°
2026-04-29 21:35 38.28954 30.17871 21428 ft 392 kts 162°
2026-04-29 21:36 38.26405 30.19064 20784 ft 394 kts 161°
2026-04-29 21:36 38.23843 30.20266 20134 ft 396 kts 161°
2026-04-29 21:36 38.21263 30.21463 19567 ft 394 kts 161°
2026-04-29 21:36 38.18692 30.22650 19069 ft 391 kts 161°
2026-04-29 21:37 38.16134 30.23827 18570 ft 388 kts 161°
2026-04-29 21:37 38.13604 30.24989 18082 ft 385 kts 161°
2026-04-29 21:37 38.11107 30.26133 17593 ft 382 kts 161°
2026-04-29 21:37 38.08630 30.27268 17100 ft 380 kts 161°
2026-04-29 21:38 38.06136 30.28409 16591 ft 378 kts 161°
2026-04-29 21:38 38.03682 30.29522 16094 ft 376 kts 162°
2026-04-29 21:38 38.01181 30.30474 15518 ft 375 kts 166°
2026-04-29 21:38 37.98636 30.31187 14924 ft 374 kts 170°
2026-04-29 21:39 37.96078 30.31778 14534 ft 367 kts 171°
2026-04-29 21:39 37.93611 30.32339 14163 ft 358 kts 170°
2026-04-29 21:39 37.91243 30.32879 13858 ft 335 kts 170°
2026-04-29 21:39 37.89030 30.33386 13655 ft 311 kts 171°
2026-04-29 21:40 37.86953 30.33863 13502 ft 293 kts 171°
2026-04-29 21:40 37.84993 30.34039 13334 ft 280 kts 192°
2026-04-29 21:40 37.83243 30.33104 13095 ft 269 kts 220°
2026-04-29 21:40 37.81972 30.31425 12773 ft 265 kts 231°
2026-04-29 21:41 37.80804 30.29646 12460 ft 263 kts 231°
2026-04-29 21:41 37.79621 30.27864 12145 ft 261 kts 230°
2026-04-29 21:41 37.78462 30.26144 11826 ft 259 kts 230°
2026-04-29 21:41 37.77284 30.24417 11501 ft 256 kts 230°
2026-04-29 21:42 37.76128 30.22731 11236 ft 252 kts 230°
2026-04-29 21:42 37.74986 30.21071 10950 ft 250 kts 229°
2026-04-29 21:42 37.73853 30.19424 10632 ft 247 kts 229°
2026-04-29 21:42 37.72720 30.17796 10330 ft 244 kts 226°
2026-04-29 21:43 37.71359 30.16585 10015 ft 238 kts 201°
2026-04-29 21:43 37.69806 30.16139 9731 ft 227 kts 187°
2026-04-29 21:43 37.68300 30.15960 9670 ft 210 kts 186°
2026-04-29 21:43 37.66839 30.15799 9763 ft 208 kts 186°
2026-04-29 21:44 37.65404 30.15632 9715 ft 208 kts 187°
2026-04-29 21:44 37.64023 30.15122 9434 ft 207 kts 214°
2026-04-29 21:44 37.63117 30.13757 9154 ft 207 kts 245°
2026-04-29 21:44 37.62878 30.11968 8887 ft 208 kts 274°
2026-04-29 21:45 37.63369 30.10286 8617 ft 209 kts 304°
2026-04-29 21:45 37.64485 30.09110 8349 ft 210 kts 335°
2026-04-29 21:45 37.65902 30.08808 8085 ft 210 kts
2026-04-29 21:45 37.67231 30.09501 7824 ft 210 kts 39°
2026-04-29 21:46 37.68231 30.10836 7597 ft 209 kts 50°
2026-04-29 21:46 37.69145 30.12259 7341 ft 207 kts 51°
2026-04-29 21:46 37.70040 30.13664 7009 ft 206 kts 50°
2026-04-29 21:46 37.70948 30.15065 6659 ft 205 kts 50°
2026-04-29 21:47 37.71847 30.16426 6334 ft 203 kts 49°
2026-04-29 21:47 37.72751 30.17776 6035 ft 199 kts 49°
2026-04-29 21:47 37.73652 30.19113 5985 ft 199 kts 49°
2026-04-29 21:47 37.74546 30.20437 5979 ft 200 kts 49°
2026-04-29 21:48 37.75432 30.21749 5851 ft 187 kts 49°
2026-04-29 21:48 37.76223 30.22921 5628 ft 169 kts 49°
2026-04-29 21:48 37.76961 30.24014 5360 ft 155 kts 49°
2026-04-29 21:48 37.77631 30.25007 5146 ft 141 kts 49°
2026-04-29 21:49 37.78254 30.25930 4965 ft 139 kts 49°
2026-04-29 21:49 37.78886 30.26867 4755 ft 138 kts 50°
2026-04-29 21:49 37.79503 30.27782 4544 ft 138 kts 50°
2026-04-29 21:49 37.80125 30.28706 4340 ft 137 kts 49°
2026-04-29 21:50 37.80743 30.29624 4140 ft 137 kts 49°
2026-04-29 21:50 37.81356 30.30546 3940 ft 136 kts 50°
2026-04-29 21:50 37.81965 30.31466 3753 ft 136 kts 49°
2026-04-29 21:50 37.82574 30.32367 3556 ft 135 kts 48°
2026-04-29 21:51 37.83196 30.33267 3369 ft 135 kts 49°
2026-04-29 21:51 37.83794 30.34161 3170 ft 134 kts 50°
2026-04-29 21:51 37.85004 30.35945 2850 ft 129 kts 49°
2026-04-29 21:52 37.85492 30.36673 2853 ft 84 kts 50°
2026-04-29 21:52 37.85761 30.37078 2853 ft 6 kts 49°
2026-04-29 21:52 37.85781 30.37114 2854 ft 5 kts 69°
2026-04-29 21:52 37.85796 30.37145 2854 ft 2 kts 344°
2026-04-29 21:53 37.85793 30.37108 2854 ft 5 kts 245°
2026-04-29 21:53 37.85763 30.37062 2854 ft 7 kts 226°
2026-04-29 21:53 37.85726 30.37013 2855 ft 7 kts 226°
2026-04-29 21:53 37.85688 30.36959 2855 ft 8 kts 228°
2026-04-29 21:54 37.85656 30.36890 2855 ft 9 kts 278°
2026-04-29 21:54 37.85705 30.36828 2855 ft 10 kts 322°
2026-04-29 21:54 37.85762 30.36768 2856 ft 10 kts 319°
2026-04-29 21:54 37.85823 30.36731 2857 ft 5 kts
2026-04-29 21:55 37.85856 30.36712 2857 ft 5 kts 321°
2026-04-29 21:55 37.85877 30.36690 2858 ft 0 kts 320°
2026-04-29 21:55 37.85878 30.36689 2858 ft 0 kts 320°